Regional Weather Roundup
Issued by NWS

Home | Current Version | Previous Version | Graphics & Text | Print | Product List | Glossary On
Versions: 1 2 3 4 5 6 7 8 9 10 11 12 13 14 15 16 17 18 19 20 21 22 23 24 25 26 27 28 29 30 31 32 33 34 35 36 37 38 39 40 41 42 43 44 45 46 47 48 49 50
000
ASUS45 KTFX 030019
RWRMT
MONTANA HOURLY WEATHER ROUNDUP
NATIONAL WEATHER SERVICE GREAT FALLS MT
619 PM MDT TUE SEP 2 2014

NOTE: "FAIR" INDICATES FEW OR NO CLOUDS BELOW 12000 FEET WITH NO
SIGNIFICANT WEATHER AND/OR OBSTRUCTIONS TO VISIBILITY.

* THESE STATIONS ARE NOT UNDER NWS QUALITY CONTROL. THEY DO NOT
   REPORT WEATHER SUCH AS PRECIPITATION OR FOG.

MTZ001>007-043-030100-
WEST OF THE DIVIDE
CITY           SKY/WX    TMP DP  RH WIND       PRES   REMARKS
KALISPELL      PTCLDY    73  39  29 W7        29.70F
MISSOULA       CLEAR     81  34  18 W18G25    29.72F
BUTTE          CLEAR     73  27  18 W14G25    29.82F
MULLAN PASS    CLEAR     57  36  46 SW9G20    29.86F
* LINCOLN      N/A       75  37  25 SW5G15     N/A
* LOOKOUT PASS N/A       64  36  35 SE14G23    N/A
* POLSON       N/A       72  41  33 W3         N/A
* RONAN APT    CLEAR     77  37  24 SW7        N/A
* SEELEY LAKE  N/A       73  38  28 NW6G14     N/A
* THOMP F APT  CLEAR     69  37  31 S8G16      N/A
$$

MTZ008-052>055-030100-
SOUTHWEST MONTANA
CITY           SKY/WX    TMP DP  RH WIND       PRES   REMARKS
BOZEMAN        CLEAR     79  34  20 SW15      29.74F
DILLON         CLEAR     79  27  15 SW12      29.80F
W YELLOWSTONE  CLEAR     66  36  33 SW17G28   29.97F
* THREE FORKS  CLEAR     81  55  41 N/A        N/A   HI  81
* BOULDER HILL N/A       73  28  19 S10G15     N/A
* MONIDA PASS  N/A       66  30  26 S18G29     N/A
* RAYNOLDS PAS N/A       68  49  51 S16G21     N/A
* WHITEHALL    N/A       82  31  16 SW13G23    N/A
* WISE RIVER   N/A       74  29  19 W13G20     N/A
$$

MTZ009>010-012-014-046-048-049-054-030100-
EAST SLOPES AND CENTRAL MONTANA
CITY           SKY/WX    TMP DP  RH WIND       PRES   REMARKS
CUT BANK       MOCLDY    70  39  32 W14G25    29.73F
GREAT FALLS    CLEAR     77  36  23 W15G23    29.70F
HELENA         CLEAR     79  37  22 NE5       29.71F
MALMSTROM AFB  CLEAR     75  36  24 SW14G20   29.71F
* CONRAD       PTCLDY    72  39  30 NW7        N/A
* EAST GLACIER N/A       64  39  40 W14G20     N/A
* MONARCH      N/A       69  28  22 SW6G16     N/A
* PENDROY      N/A       68  39  35 E3         N/A
* ROGERS PASS  N/A       67  42  40 S2G9       N/A
* SAINT MARY   N/A       67  39  36 SW7G15     N/A
* SWEET GRASS  N/A       69  35  29 NW10G21    N/A
* WHITE SULPH  N/A       75  31  20 SW6G15     N/A
$$

MTZ011-013-016-021-035-040-045-047-050-051-030100-
NORTH CENTRAL MONTANA
CITY           SKY/WX    TMP DP  RH WIND       PRES   REMARKS
HAVRE          PTCLDY    73  36  26 SW12      29.68F
LEWISTOWN      CLEAR     75  41  30 N6        29.75F
* CHINOOK      PTCLDY    75  37  25 SW7       29.69F
* FORT BENTON  CLEAR     77  36  23 N3        29.69F
* CHESTER      N/A       74  36  25 W6G14      N/A
* DENTON       N/A       74  39  28 NE8G14     N/A
* GEYSER       N/A       75  35  23 W14G24     N/A
* JUDITH GAP   N/A       75  35  23 W15G20     N/A
* LOMA         N/A       77  34  21 NW9        N/A
$$

MTZ017>020-022>027-061-062-030100-
NORTHEAST MONTANA
CITY           SKY/WX    TMP DP  RH WIND       PRES   REMARKS
GLASGOW        PTCLDY    73  39  29 S6        29.72F
GLENDIVE       PTCLDY    72  43  35 W7        29.78F
JORDAN         CLEAR     73  39  29 SE6       29.74F
SIDNEY         PTCLDY   N/A N/A N/A W5        29.75F
WOLF POINT     PTCLDY    73  43  34 W8        29.74S
* BEAVER HILL  N/A       72  38  29 SW8        N/A
* CIRCLE       N/A       73  42  33 W7         N/A
* LINDSAY DVD  N/A       70  39  32 W4         N/A
* NAVAJO       N/A       72  41  33 SW4G10     N/A
* SACO         N/A       74  40  29 S7         N/A
$$

MTZ028>042-056>058-030100-
SOUTHCENTRAL AND SOUTHEAST MONTANA
CITY           SKY/WX    TMP DP  RH WIND       PRES   REMARKS
BAKER          PTCLDY    73  41  32 CALM      29.81F
BILLINGS       FAIR      79  45  30 E9        29.73F
LIVINGSTON     CLEAR     81  30  16 SW20G29   29.75F
MILES CITY     CLEAR     75  41  30 E8        29.75F
* LAUREL APT   CLEAR     81  43  26 N6         N/A
* ROUNDUP APT  CLEAR     79  39  24 N/A        N/A
* ALZADA       N/A       81  36  20 S6         N/A
* HYSHAM       N/A       77  38  25 S6         N/A
* LAME DEER    N/A       74  41  31 S6G12      N/A
* REED POINT   N/A       79  40  25 E8         N/A
* ROSCOE HILL  N/A       75  30  19 NE1G7      N/A
$$

REGIONAL REPORTS...DAKOTAS
CITY           SKY/WX    TMP DP  RH WIND       PRES   REMARKS
WILLISTON      CLEAR     73  43  34 W3        29.74S
DICKINSON      MOCLDY    70  52  53 W5        29.78S
BEACH          N/A       68  41  38 W8        29.80F
CROSBY         CLEAR     68  45  44 NW5       29.74F
TIOGA          CLEAR     68  41  38 N5        29.77S
WATFORD CITY   FAIR      73  43  34 W3        29.73S
BISMARCK       PTCLDY    75  48  39 W7        29.75F
GRAND FORKS    PTCLDY    75  54  48 W7        29.67S
FARGO          PTCLDY    77  55  47 SW17      29.72S
BUFFALO SD     PTCLDY    75  46  36 NE7       29.74F
RAPID CITY     CLEAR     79  50  36 E7        29.82F
$$

REGIONAL REPORTS...WYOMING/IDAHO/WASHINGTON
CITY           SKY/WX    TMP DP  RH WIND       PRES   REMARKS
GILLETTE       CLEAR     79  36  21 SE8       29.81F
SHERIDAN       CLEAR     81  37  21 SE7       29.77F
CODY           CLEAR    N/A N/A N/A N/A        N/A
YELLOWSTONE LA CLEAR     63  27  26 W10G20    30.08F
SALMON         CLEAR     79  43  28 NE6       29.69F
MULLAN PASS    CLEAR     57  36  46 SW9G20    29.86S
SAND POINT     CLOUDY    70  45  41 CALM      29.70F
SPOKANE        PTCLDY    73  41  32 SW16G28   29.71F
$$

REGIONAL REPORTS...ALBERTA
CITY           SKY/WX    TMP DP  RH WIND       PRES   REMARKS
LETHBRIDGE     MOCLDY    63  43  48 NE10      29.71R
MEDICINE HAT   CLOUDY    70  45  41 NW10      29.67R
EDMONTON       MOCLDY    59  45  60 N21G29    29.72R
WATERTON GATE  N/A       63  43  48 SW6        N/A
CARDSTON       N/A       66  43  43 W7         N/A
$$

REGIONAL REPORTS...SASKATCHEWAN
CITY           SKY/WX    TMP DP  RH WIND       PRES   REMARKS
SWIFT CURRENT  CLOUDY    64  46  52 SE6       29.69F
MOOSE JAW      MOCLDY    68  45  44 E2        29.72F
REGINA         MOCLDY    64  48  56 NW7       29.73S
VAL MARIE      N/A       72  41  33 W7         N/A
ASSINIBOIA     N/A       70  36  29 NE1        N/A
CORONACH       N/A       70  39  32 SW6        N/A

$$



USA.gov is the U.S. government's official web portal to all federal, state and local government web resources and services.